Location: The Saddle
(36.8333°N, 80.3417°W)
Time: 02:02:14
(UTC-05:00)

AO-7 - Pass Details

Date: 13 December 2023
Orbit: 1440 x 1458 km, 102.0° (Epoch: 01 March)

Event Time Altitude Azimuth Distance (km) Brightness Sun altitude
Rises 05:15:43 0° 20° (NNE) 4,541 ? -25.2°
Reaches altitude 10° 05:18:32 10° 23° (NNE) 3,561 ? -24.6°
Maximum altitude 05:26:47 65° 105° (ESE) 1,571 ? -23.0°
Drops below altitude 10° 05:34:59 10° 186° (S) 3,556 ? -21.4°
Sets 05:37:48 0° 189° (S) 4,534 ? -20.8°
